Showing default

COSMOS 2252, 22687

Orbit data source: Space-Track

COSMOS 2252, 22687 is a payload satellite owned by VKS (CIS) in LEO that was launched on Thu, 24 Jun 1993 UTC via a TSIKLON-3 launch vehicle from the Plesetsk Missile And Space Complex (PKMTR). Payload-class satellites include a variety of spacecraft equipped with specific instruments for various scientific and technological missions. These include communications satellites like Starlink; space stations such as the ISS; scientific satellites like the Hubble; Earth observation satellites from companies like Planet Labs, Umbra, and HawkEye 360; GPS; miniature CubeSats for education and research; and military/defense satellites.

Loading next visibility...
Identifier
22687, 1993-038A
Orbit
LEO
Country
Flag of CISCIS
Related business
Manufacturer
NPO PM
Mission
Defense Communications
Bus & Motor
STRELA-3, Unknown motor
Mass
225 kg wet, 225 kg dry
Launch date (UTC)
1993-06-24 (33 years ago)
Launch vehicle
TSIKLON-3
Launch site
Plesetsk Missile And Space Complex (PKMTR)
Object type
Payload
Rocket body
Debris
Shape & HBR
Cyl, 0.8 m
Radar Cross Section
1.257 m², Large (>1 m²)

Expand to show TLE details & history
Last TLE update: 2 days ago

TLE from 2 days ago
0 COSMOS 2252
1 22687U 93038A   26171.43076582  .00000009  00000-0 -97384-5 0  9996
2 22687  82.5813 225.8877 0007151 337.6795  33.7453 12.63333295520938
Epoch: 2026-06-20T10:20Z
TLE epoch observation values (Epoch: 2026-06-20T10:20:18.166Z)
Latitude
11.3293°
Longitude
163.654°
Altitude
1,406.568 km
Speed
7.16 km/s
True Right ascension
15h 09m 30s
True Declination
11° 16' 08"
Sunlit
Object was in full shadow at epoch
Visualization orbit readout
Latitude
Unknown
Longitude
Unknown
Altitude
Unknown
Speed
Unknown
Apparent Right ascension
Unknown
Apparent Declination
Unknown
Sunlit
N/A
Visualization observer readout
Local Sidereal Time
23:21:54
Azimuth
Unknown
Elevation
Unknown
Doppler factor
Unknown
Orbital elements
Apogee altitude
1,412.102 km
Perigee altitude
1,400.969 km
Semi-major axis
7,784.672 km
Eccentricity
0.00072
Inclination
82.5813°
RAAN
225.8877°
Arg. of periapsis
337.6795°
True anomaly
33.79085°
Mean anomaly
33.7453°
Eccentric anomaly
33.76807°
Mean motion
3.15997 °/min
Orbital period
113.93 mins
BSTAR
-0.0000097384
Loading maneuver chart data...
Computing Atmospheric mass density...
Loading historical data...
Loading historical data...
Loading historical data...
Loading historical data...
Loading historical data...
Loading historical data...
Loading historical data...

Documentation

Showing up to 5 results
|